Погода Октябрьский Городок

Погода Октябрьский Городок : погода сейчас, прогноз погоды и архив. Всё, что Вы хотите узнать о погоде Октябрьский Городок!

Поиск расширенной информации на нашем сайте:

Другие новости

Новости СМИ2

Главная страница сайта

Новости сайта

03.07.2017

Напоминаем, что на нашем специализированном сайте Метеоцентр.Азия вы можете получить высокодетализированные автоматические прогнозы погоды по пунктам России, СНГ и мира в авиационном формате (включающие направление и скорость ветра, видимость, явления погоды, количество и форму облачности, нижнюю и верхнюю границу облачности).


Погода Октябрьский Городок - сегодня

Время (UTC), дата Ветер
(°,м/с) 
Видим.   Явления Облачность Т
(°С)
Тd
(°С)
f(%) Тe
(°С)
Pmin
(гПа)
dP
(гПа)
Po
(мм)
O2
(г/м3)
Тmin Tmax R s Состояние
почвы
00 18.09.17 050 (СВ) 20000 м    ясно 
+10.5 +7 79 +11  1022.4  -0.1  749  289           
03 18.09.17 060 (СВ) 20000 м    ясно 
+10 +6.8 80 +10  1021.6  -0.7  748  290  +9.7        сухая 
06 18.09.17 090 (В) 20000 м    ясно 
+18.8 +9.8 56 +20  1020.9  748  280           
09 18.09.17 120 (ЮВ) 20000 м    8/0 верхняя 
[Ci]
+25.4 +8.4 34 +25  1018.3  -2  747  274           
12 18.09.17 180 (Ю) 20000 м    8/0 верхняя 
[Ci]
+29.3 +9.8 30 +30  1015.9  -2.2  745  269           
18 18.09.17 170 (Ю) 20000 м    ясно 
+20.6 +7.4 42 +21  1016  0.3  745  278           
21 18.09.17 170 (Ю) 20000 м    ясно 
+19.5 +8.4 49 +20  1012.6  -0.2  744  279           
00 19.09.17 180 (Ю) 5-10  20000 м    ясно 
+19.1 +8.5 50 +19  1016.2  0.2  745  279           
03 19.09.17 210 (ЮЗ) 2{10}  20000 м    ясно 
+16.8 +9.5 62 +19  1017.4  745  281  +16.8        сухая 
06 19.09.17 190 (Ю) 7-10{11}  20000 м    ясно 
+23.3 +7.4 36 +23  1015.3  -1.5  744  275           
09 19.09.17 200 (Ю) 8-15{15}  20000 м    ясно 
+29.1 +5.1 22 +29  1015  0.2  744  270           
12 19.09.17 240 (ЮЗ) 6-13{15}  20000 м    3/0 верхняя 
[Ci fib]
+30.7 +5.3 20 +31  1014.3  -0.5  744  269           
15 19.09.17 260 (З) 2{15}  20000 м    ясно 
+27 +9.8 34 +28  1014.7  0.1  744  271    +31.4       
18 19.09.17 210 (ЮЗ) 20000 м    ясно 
+18.9 +11.7 63 +24  1017.2  1.7  745  279           
21 19.09.17 тихо ()   20000 м    ясно 
+13.4 +9 75 +13  1018  0.4  746  285           
00 20.09.17 030 (СВ) 20000 м    ясно 
+13.4 +6.8 64 +15  1019.3  1.3  747  286           
03 20.09.17 030 (СВ) 20000 м    ясно 
+12.1 +7.1 71 +13  1020.1  0.6  747  287  +12.1        сухая 
06 20.09.17 030 (СВ) 20000 м    ясно 
+17.4 +8.5 56 +18  1020.5  0.9  748  282           
09 20.09.17 050 (СВ) 20000 м    ясно 
+22.4 +8.9 42 +22  1020.1  748  277           
12 20.09.17 170 (Ю) 20000 м    ясно 
+24.6 +8.1 35 +25  1018.8  -1.1  747  275           
15 20.09.17 060 (СВ) 20000 м    ясно 
+21.4 +6.7 38 +21  1019.7  0.6  747  278    +24.6       
18 20.09.17 080 (В) 20000 м    ясно 
+16.5 +7 53 +16  1021  0.9  748  283           
21 20.09.17 050 (СВ) 20000 м    ясно 
+12.8 +6.5 65 +13  1021.6  0.2  748  287           
00 21.09.17 050 (СВ) 20000 м    ясно 
+12.3 +7.4 72 +12  1022.4  0.7  749  287           
03 21.09.17 070 (В) 20000 м    ясно 
+11.6 +8.1 79 +11  1023.1  0.7  749  288  +11.6        сухая 
Время (UTC), дата Ветер
(°,м/с) 
Видим.   Явления Облачность Т
(°С)
Тd
(°С)
f(%) Тe
(°С)
Pmin
(гПа)
dP
(гПа)
Po
(мм)
O2
(г/м3)
Тmin Tmax R s Состояние
почвы

Для получения пояснительной информации подведите курсор к названию столбца.

ПОГОДА Октябрьский Городок - архив

Всё, что Вы хотите узнать о погоде Октябрьский Городок - удобно и подробно!

Выберите нужную дату (начиная с 1 января 2015* года) и нажмите кнопку "Найти".
Будут отображены архивные сводки погоды по пункту Октябрьский Городок, начиная с указанной даты.


Отображать данные в формате CSV (для использования в таблицах Excel)


Внимание! Наш архив погоды предназначен исключительно для личного некоммерческого использования в познавательных целях. Если Вам необходимы официальные справки о состоянии погоды (для производственных, юридических, коммерческих и т.п. целей), обращайтесь в органы Росгидромета.

*Примечание: данная дата относится к архиву по метеостанциям СССР (Россия, СНГ, Балтия).
Архив по метеостанциям Зарубежной Европы и Азии (кроме Китая) хранится 10 дней, по другим регионам земного шара (Китай, Африка, Америка, Австралия, Океания) - 1 день.

Октябрьский Городок - район местоположения метеостанции


Название, широта, долгота, высота метеостанции:
Октябрьский Городок 51.6°ш. 45.4°д. 201 м над ур. моря [Российская Федерация]

Дополнительная информация

В oтличие oт бoльшинства пoгoдных сайтoв мы публикуем пoдрoбную метеoинфoрмацию в детальнoм прoфессиoнальнoм фoрмате.

Характеристики температуры и влажнoсти вoздуха измеряются на высoте 2 м в тени вдали oт зданий и деревьев.
Скoрoсть ветра измеряется на высoте 10 м (на урoвне рoста челoвека скoрoсть ветра ниже в 1.5-2 раза). Если метеoстанция нахoдится в гoрoде или в лесу, тo скoрoсть ветра занижена на 2-4 м/с пo сравнению с oткрытым местoм. Скoрoсть ветра над акватoриями крупных рек и oзёр, а также на вершинах хoлмoв на 2-5 м/с выше, чем в oбычных услoвиях.
Атмoсфернoе давление в разных тoчках местнoсти мoжет значительнo oтличаться oт давления на метеoстанции, в зависимoсти oт услoвий рельефа (при пoдъёме на 10 м давление пoнижается примернo на 1 мм рт.ст.).